Weather in Yb

Russia / Komi Republic     62°14′41″N   50°28′05″E
temp.,
°C
wind,
m/s
gust,
m/s
humid.,
%
clouds,
%
prec.,
mm/h
press.,
hPa
HPBL,
m
30 november, tue
tue3000:00−19ene249963 0.0 101653
03:00−15ene3119495 0.0 1013256
06:00−11e5158638 0.0 1009463
09:00−10e61883100 0.0 1005563
12:00−9e72086100 0.0 1000688
15:00−7e61894100 3.0 992680
18:00−6e61794100 2.0 986607
21:00−1ese41298100 6.4 982719
1 december, wed
wed100:000se3999100 3.8 980499
03:00+1sse3999100 4.8 980688
06:00+1s4119297 1.0 981869
09:00−1s4128898 1.1 982595
12:00−1s51194100 0.3 9851094
15:00−2s41095100 1.0 985748
18:00−3s4995100 0.7 986557
21:00−5sse2796100 0.9 986226
2 december, thu
thu200:00−9sse1199100 0.1 98625
03:00−13s11100100 0.1 98713
06:00−11ssw1398100 0.1 98750
09:00−10sw259799 0.3 989123
12:00−8sw279698 0.3 990279
15:00−10ssw2897100 0.3 991204
18:00−11sw3896100 0.1 992285
21:00−11wsw399599 0.3 993318
3 december, fri
fri300:00−11wsw3995100 0.3 995379
03:00−11wsw399598 0.6 996417
06:00−12wsw379590 0.3 998301
09:00−13wsw259777 0.4 1001158
12:00−13w249693 0.1 1003219
15:00−15wnw119887 0.3 100614
18:00−16nne259871 0.1 100997
21:00−17nne269765 0.1 1012176
4 december, sat
sat400:00−19ne379512 0.0 1015183
03:00−19ene31093100 0.0 1016267
06:00−18e41390100 0.0 1016419
09:00−17e61687100 0.0 1014529
12:00−15e71994100 1.4 1010595
15:00−14e72094100 4.6 1006699
18:00−13e51395100 4.3 1004559
21:00−13e279599 5.3 1005248